EW5562 Weather Reports


time (UTC)temp
F
wind
direction
speed
knots
gust
knots
rain 1hr
in
rain 24hr
in
rain mn
in
humidity
%
barometer
mb
20260906083309 87 149 2.6 3.5 0.00 0.00 0.00 35 1014.6
20260906080309 83 183 0.0 3.5 0.00 0.00 0.00 42 1014.8
20260906073309 81 24 0.9 3.5 0.00 0.00 0.00 45 1014.7
20260906071809 77 159 1.7 2.6 0.00 0.00 0.00 49 1014.4
20260906063307 74 133 0.9 3.5 0.00 0.00 0.00 54 1014.2
20260906060320 71 144 0.9 1.7 0.00 0.00 0.00 59 1013.9
20260906053306 68 326 0.0 1.7 0.00 0.00 0.00 63 1013.9
20260906050306 65 324 0.0 3.5 0.00 0.00 0.00 68 1014.0
20260906043306 65 324 0.9 4.3 0.00 0.00 0.00 68 1013.8
20260906040306 64 269 2.6 2.6 0.00 0.00 0.00 69 1013.5
20260906033305 65 262 0.9 3.5 0.00 0.00 0.00 67 1013.3
20260906030304 63 279 0.0 2.6 0.00 0.00 0.00 70 1013.3
20260906023303 66 279 1.7 2.6 0.00 0.00 0.00 66 1013.0
20260906020303 65 178 0.0 0.0 0.00 0.00 0.00 66 1012.8
20260906015032 65 189 0.9 4.3 0.00 0.00 0.00 68 1012.7
20260906012032 68 299 1.7 3.5 0.00 0.00 0.00 61 1012.9
20260906005031 69 269 0.0 0.0 0.00 0.00 0.00 59 1013.0
20260906002044 67 265 0.0 0.0 0.00 0.00 0.00 65 1013.0
20260905235029 68 262 0.0 2.6 0.00 0.00 0.00 62 1013.3
20260905232029 70 266 0.9 5.2 0.00 0.00 0.00 58 1013.5
20260905230530 70 283 2.6 6.1 0.00 0.00 0.00 57 1013.6
20260905222028 70 285 2.6 5.2 0.00 0.00 0.00 56 1013.6
20260905215028 71 334 1.7 4.3 0.00 0.00 0.00 56 1013.6
20260905212027 73 266 0.9 4.3 0.00 0.00 0.00 52 1013.8
20260905205027 73 281 3.5 5.2 0.00 0.00 0.00 53 1013.7
20260905202029 74 276 3.5 4.3 0.00 0.00 0.00 51 1013.8
20260905195026 74 337 4.3 4.3 0.00 0.00 0.00 50 1013.8
20260905192025 75 343 0.0 5.2 0.00 0.00 0.00 49 1014.0
20260905185025 76 214 3.5 4.3 0.00 0.00 0.00 47 1013.9
20260905182025 78 228 1.7 4.3 0.00 0.00 0.00 45 1013.7
20260905175024 80 37 0.9 3.5 0.00 0.00 0.00 42 1013.3
20260905172024 82 103 2.6 5.2 0.00 0.00 0.00 39 1012.9
20260905165022 85 83 2.6 6.1 0.00 0.00 0.00 37 1012.8
20260905162023 87 93 2.6 6.1 0.00 0.00 0.00 35 1012.8
20260905155022 88 63 4.3 12.2 0.00 0.00 0.00 33 1012.9
20260905152022 89 73 7.0 10.4 0.00 0.00 0.00 32 1012.7
20260905145022 90 11 10.4 12.2 0.00 0.00 0.00 31 1012.7
20260905142021 90 10 10.4 14.8 0.00 0.00 0.00 31 1012.7
20260905135021 91 30 13.0 16.5 0.00 0.00 0.00 31 1012.7
20260905132020 90 30 6.1 13.0 0.00 0.00 0.00 31 1013.1
20260905125033 91 44 11.3 14.8 0.00 0.00 0.00 31 1013.3
20260905122033 91 62 9.6 15.6 0.00 0.00 0.00 30 1013.7
20260905115018 90 41 4.3 17.4 0.00 0.00 0.00 32 1014.0
20260905112019 90 13 8.7 15.6 0.00 0.00 0.00 33 1014.1
20260905110518 90 24 8.7 14.8 0.00 0.00 0.00 33 1014.1
20260905102018 89 61 7.0 13.0 0.00 0.00 0.00 34 1014.2
20260905095017 88 52 4.3 13.0 0.00 0.00 0.00 33 1014.6
20260905092017 89 10 9.6 14.8 0.00 0.00 0.00 33 1014.7
20260905085016 88 353 7.0 13.9 0.00 0.00 0.00 34 1014.7